Theta_e
300 293 290 288 291 294 291 290 291 290 292 290 290 289 287 286 287 289 289 288 289 286 285 286 287 287 289 291 292 294 292 292 292 292 291 292 292 293 293 295 297 298 298 303 304 303 303 305 302 302 299 298 297 296 294 294 296 297 299 300 299 299 300 299 299 300 300 299 298 298 299 299 299 300 300 302 301 302 301 302 304 303 304 304 305 305
301 293 289 293 291 289 289 289 290 290 290 289 287 287 286 289 285 290 288 288 289 286 283 285 285 287 289 291 292 293 291 291 291 291 291 292 292 294 295 295 298 299 302 302 302 303 304 301 304 303 302 299 294 294 293 293 295 296 296 299 300 299 299 299 300 300 300 300 299 298 298 298 299 299 299 299 300 301 302 302 303 303 304 304 304 305
292 287 291 290 291 290 290 290 290 289 290 290 287 285 285 285 290 286 287 286 289 287 284 285 285 286 289 291 292 292 292 292 294 294 293 292 292 294 295 297 298 299 299 300 301 302 301 304 304 303 302 302 301 296 294 296 296 296 296 298 298 299 298 298 300 301 300 299 300 300 299 299 298 300 301 300 301 302 302 302 303 303 304 304 304 304
289 294 289 290 290 289 290 289 289 290 291 286 286 285 281 288 285 284 286 285 287 285 283 284 284 286 290 292 292 293 292 292 296 296 297 297 297 295 297 297 298 297 298 299 298 298 299 301 301 302 301 301 303 300 298 297 296 297 296 296 297 299 298 299 299 301 300 300 300 300 301 301 300 300 301 301 301 302 301 301 303 304 304 304 304 304
290 291 289 289 289 289 291 291 290 287 284 288 288 287 285 287 285 282 285 288 289 287 287 285 284 285 288 290 291 292 293 293 293 294 293 294 297 299 298 298 298 297 299 298 299 298 298 299 299 300 301 301 303 303 302 302 300 299 296 298 298 298 299 299 299 299 300 301 300 300 299 298 298 298 299 299 300 301 301 302 302 303 303 304 303 303
291 289 290 289 290 289 290 288 287 291 284 288 289 288 287 286 286 287 287 287 284 283 286 286 277 278 286 287 289 291 291 291 291 291 292 293 294 295 296 297 298 300 299 299 298 298 298 298 299 300 300 301 302 302 302 302 302 300 300 298 298 299 298 299 299 299 299 300 299 298 296 295 295 295 295 297 298 299 300 301 302 302 303 303 303 303
289 287 289 290 290 290 289 288 290 288 283 281 283 287 288 288 288 287 286 285 279 278 287 287 279 276 285 286 288 290 290 290 293 291 291 293 294 295 296 296 296 297 298 300 299 297 297 299 299 300 300 300 300 300 301 301 301 301 301 299 298 297 297 300 299 299 299 299 299 299 298 296 295 295 296 297 299 300 300 301 300 302 302 302 303 302
290 289 286 288 290 289 288 284 289 288 283 281 285 286 288 288 288 288 286 284 279 286 289 288 283 277 279 285 289 291 288 289 289 291 292 293 293 296 296 296 295 298 297 299 298 297 296 298 298 298 299 300 299 300 301 302 302 302 301 299 298 298 297 299 299 299 299 299 298 297 297 298 296 296 297 299 299 301 301 300 300 301 301 302 302 302
290 287 286 287 287 286 285 287 286 287 284 286 285 288 288 287 288 287 285 283 283 282 278 283 287 280 276 285 288 288 287 288 288 290 291 293 293 294 295 296 296 298 298 300 299 297 297 297 298 298 298 298 299 300 300 301 301 302 300 300 298 298 297 298 298 298 298 298 298 298 298 297 299 299 300 299 297 298 299 300 300 300 300 300 300 301
290 289 291 292 288 284 286 284 283 285 285 288 289 289 288 288 288 288 282 283 282 279 276 280 285 277 276 283 287 289 287 286 288 291 291 293 294 294 295 294 297 296 297 299 299 297 297 298 298 298 298 298 299 299 300 300 300 301 301 300 297 297 297 298 297 297 297 297 298 298 298 298 298 297 299 298 297 297 296 297 297 297 299 299 299 299
289 292 292 291 288 288 286 285 287 286 288 289 289 288 287 286 284 284 283 282 280 275 278 281 285 281 275 282 285 286 291 289 289 290 291 294 295 295 295 295 297 297 297 297 296 297 298 298 299 297 296 298 298 299 299 300 300 301 302 300 300 298 297 296 297 297 297 296 297 297 297 298 298 298 297 296 297 297 296 296 296 297 297 298 299 298
290 289 289 287 291 292 290 287 289 288 288 288 286 285 282 282 281 281 280 280 276 273 280 278 283 284 274 276 288 290 290 290 290 290 291 291 293 295 296 295 296 296 297 297 295 296 297 297 297 296 297 297 298 298 298 299 300 300 300 300 300 300 299 297 297 297 298 297 297 297 297 298 298 298 299 297 297 297 296 296 296 297 297 297 298 298
287 285 288 289 290 289 289 287 286 288 288 286 283 283 278 277 279 276 278 274 273 275 279 280 284 279 277 283 288 290 292 291 291 293 292 292 292 295 297 296 296 295 296 297 296 296 297 297 296 296 296 296 297 297 298 299 299 299 299 300 299 299 299 299 298 296 297 297 297 297 297 298 298 298 297 297 297 297 297 297 296 296 296 295 296 295
283 282 288 288 289 290 289 283 283 281 283 284 282 281 278 274 273 269 273 276 277 279 279 279 283 275 280 285 289 290 292 292 292 294 293 293 293 293 293 296 297 295 295 297 297 297 297 297 297 297 297 298 298 298 298 297 298 297 299 298 298 297 298 298 299 298 297 297 297 297 297 297 296 296 297 297 296 297 297 297 297 296 296 297 296 297
280 282 284 285 284 286 287 285 283 282 283 283 287 283 280 278 275 270 274 272 273 277 278 279 276 275 276 282 289 291 292 292 292 294 292 293 294 294 293 292 292 298 297 296 296 298 298 299 298 298 298 298 298 298 298 296 297 296 296 297 296 296 296 297 298 298 298 298 298 298 298 298 297 297 296 296 298 297 298 298 297 298 298 296 296 297
283 282 284 285 284 283 286 288 288 286 282 285 285 285 280 279 280 276 279 276 274 275 275 275 275 279 282 288 291 293 292 291 291 291 292 291 292 292 292 291 292 293 296 298 297 298 298 298 298 299 298 298 298 297 297 296 296 297 297 296 296 296 296 296 296 296 297 297 297 297 297 297 298 297 297 298 297 297 297 297 296 297 297 296 296 297
282 280 283 286 285 282 282 285 288 286 279 282 281 280 281 282 279 278 275 275 275 274 272 279 280 283 288 289 291 291 290 290 291 290 289 290 291 292 291 292 291 292 292 294 297 297 298 298 298 299 298 298 298 297 297 297 297 297 297 295 295 295 295 295 295 296 296 296 295 296 296 296 296 296 296 296 296 296 295 295 296 295 294 294 295 297
278 280 282 284 282 283 284 284 285 287 284 282 279 281 284 282 280 279 273 276 275 272 275 278 275 276 280 278 288 287 288 289 289 290 290 292 293 293 292 293 294 294 294 295 298 299 299 299 299 299 299 299 299 298 297 297 296 297 296 295 294 294 294 294 294 294 294 294 295 294 295 295 295 295 295 294 295 294 294 295 294 293 294 293 294 295
287 279 282 283 283 285 285 285 284 287 288 284 282 285 281 278 278 280 275 268 270 269 272 276 277 277 279 282 285 287 286 288 289 290 290 290 293 293 294 295 295 295 296 296 296 299 300 299 299 299 299 299 299 299 298 297 297 296 295 295 294 294 294 294 294 293 294 294 295 295 294 293 293 293 293 293 293 293 293 293 292 292 293 292 292 293
286 279 280 281 283 284 283 284 282 282 286 284 285 283 285 280 278 275 278 275 276 271 271 271 278 276 285 283 285 287 288 289 290 290 291 292 291 293 293 295 297 298 297 297 297 298 300 300 299 299 299 299 298 298 298 296 295 295 295 294 294 293 292 292 292 292 293 292 293 293 292 293 292 292 292 292 292 292 291 292 292 291 291 291 291 291
283 284 276 282 281 282 280 281 281 284 280 279 280 280 281 281 285 281 278 276 275 272 272 272 272 278 285 287 288 288 288 289 290 290 291 291 291 291 293 296 296 297 297 297 298 297 298 299 299 299 299 299 298 297 297 296 295 294 294 293 292 292 292 291 292 292 292 292 292 292 291 291 291 291 291 291 291 291 290 290 290 289 290 289 290 289
283 283 278 281 279 278 283 283 282 281 284 283 282 281 282 279 279 276 275 281 278 275 272 273 273 279 287 289 290 289 289 290 290 290 290 290 290 290 292 293 295 295 295 295 296 296 298 298 299 298 298 297 297 297 297 296 294 293 293 293 293 292 292 292 292 292 291 290 291 290 290 290 290 290 289 289 289 290 289 288 289 288 288 288 287 287
284 283 281 278 280 283 285 282 283 283 281 281 280 282 284 283 283 280 273 277 279 278 279 276 274 277 288 291 292 291 291 290 290 289 290 290 290 291 291 291 294 295 295 296 295 296 297 298 298 298 298 298 298 297 297 295 294 294 293 293 292 292 292 292 292 292 292 291 290 290 289 289 289 289 289 288 287 288 287 287 287 286 287 286 285 285
289 281 279 280 282 280 279 280 281 282 283 281 281 280 282 281 283 282 281 280 276 278 277 276 274 278 288 288 288 288 288 288 289 289 290 291 291 291 292 292 293 294 295 295 294 295 295 296 297 296 296 298 298 297 296 296 295 294 293 293 292 292 292 292 292 292 291 290 290 289 289 288 288 287 287 286 286 286 285 285 285 285 286 285 285 287
280 281 281 276 275 279 279 279 280 279 280 281 281 282 282 283 282 281 281 283 277 279 279 276 273 278 288 289 291 291 291 292 292 292 290 291 292 292 292 293 294 294 294 295 295 295 295 294 296 297 297 297 298 298 297 296 295 294 293 293 292 292 292 292 291 290 290 289 289 288 288 287 287 286 285 285 285 284 285 284 285 284 285 285 285 284
281 281 278 273 270 270 269 273 276 279 280 280 283 284 284 282 280 280 275 278 275 278 278 275 277 284 287 288 289 292 293 293 294 294 295 293 292 293 294 294 294 294 295 295 295 294 295 295 295 295 295 296 296 297 297 296 295 294 293 293 292 292 291 291 290 290 289 288 288 287 286 286 285 286 285 285 284 284 285 285 284 284 284 284 284 283
281 282 280 279 277 276 278 280 284 284 282 278 281 281 282 283 283 282 281 277 276 279 277 280 282 283 285 288 289 291 292 292 293 294 294 294 295 294 294 294 294 294 295 295 295 295 294 294 295 296 296 296 296 296 297 296 295 294 293 292 292 291 291 290 290 289 288 287 287 286 285 285 285 286 285 285 285 284 284 284 284 284 284 283 283 283
281 278 280 279 280 282 282 281 283 284 281 282 281 282 284 283 282 281 279 278 281 279 276 283 283 282 284 286 288 289 291 292 292 293 294 294 294 294 294 294 294 294 294 293 293 293 293 294 294 294 294 295 296 296 296 296 295 294 293 292 291 290 290 290 289 288 287 287 286 286 285 285 285 285 284 284 283 283 283 283 283 283 282 282 282 282
281 277 280 280 280 282 283 283 283 282 282 282 282 282 282 283 283 280 281 283 282 279 278 282 283 282 284 287 288 289 290 291 292 293 294 294 294 294 294 293 293 294 294 293 293 293 292 293 294 294 295 295 295 295 295 296 295 293 292 290 290 290 289 288 288 287 287 286 286 285 285 285 284 284 284 284 283 283 283 283 282 282 281 281 281 282
281 278 280 281 280 282 281 282 283 282 281 282 282 283 284 283 283 283 283 284 283 282 284 284 283 283 286 287 289 290 292 292 292 294 293 293 293 293 294 293 293 293 292 292 293 293 293 293 294 294 295 295 296 296 295 295 294 293 292 290 289 289 288 288 287 287 286 286 286 285 285 284 284 284 284 283 283 282 282 281 281 280 280 280 280 280
281 278 284 279 277 278 280 281 280 281 281 280 281 282 283 283 283 283 283 284 284 283 284 284 283 283 288 290 290 292 293 293 292 292 292 292 292 293 293 293 293 292 292 293 294 294 294 294 294 295 295 296 297 297 296 296 294 293 290 289 288 288 287 287 286 286 286 286 285 285 284 284 284 284 283 282 282 281 281 280 280 279 279 279 279 280
281 277 281 279 275 277 279 278 278 277 278 276 278 281 282 281 279 282 281 284 282 281 283 283 281 282 288 289 290 291 291 290 290 291 292 292 292 292 292 292 292 292 292 293 293 293 294 294 294 294 294 294 294 295 294 293 292 291 290 288 287 287 287 286 286 286 285 285 285 284 284 284 283 283 282 282 281 280 279 279 278 278 278 279 279 280
280 278 277 277 275 276 280 279 276 273 274 275 277 281 282 282 283 283 284 284 285 285 282 280 281 287 289 289 288 289 290 290 290 291 292 292 292 292 292 292 292 292 292 293 293 293 293 293 294 294 293 293 294 293 294 294 291 290 290 288 287 287 286 286 286 285 285 284 284 284 284 283 283 282 282 281 280 279 278 278 278 278 278 279 279 280
281 280 278 279 273 276 278 274 276 273 270 273 282 285 285 282 282 280 281 283 285 286 285 287 287 289 290 290 289 289 290 291 292 293 293 291 291 291 291 291 292 293 293 293 293 292 292 293 293 293 293 292 291 290 291 290 291 289 288 287 286 286 286 285 285 285 284 284 284 283 283 283 282 282 281 280 279 278 277 277 277 278 279 280 280 279
281 281 279 280 276 276 276 274 273 270 273 283 284 285 285 287 286 285 285 286 287 288 288 288 289 289 290 290 290 291 292 293 293 291 291 292 291 291 291 292 292 291 291 292 292 292 292 291 291 291 291 291 290 288 287 287 285 286 286 286 286 285 285 285 284 283 283 283 283 283 283 282 282 281 280 279 279 278 277 277 278 279 280 280 279 278
283 281 280 279 279 279 276 275 269 271 280 283 285 285 285 283 282 282 281 285 286 286 287 286 287 289 290 290 291 292 291 290 288 289 291 292 292 291 291 291 291 291 291 291 291 291 291 290 290 290 290 290 288 287 286 285 285 286 285 285 285 285 284 284 283 283 283 282 282 282 283 283 282 281 280 279 278 278 277 277 279 279 279 279 278 278
285 283 281 278 282 275 277 275 275 280 280 282 282 283 281 281 279 280 277 281 287 288 288 287 289 290 291 291 291 289 286 286 286 288 291 291 291 291 291 291 291 291 291 291 291 290 290 289 289 289 289 289 288 288 287 285 285 285 285 285 284 284 283 283 283 282 282 282 282 282 282 281 280 279 279 278 277 276 277 278 278 279 279 279 279 279
286 282 283 278 277 280 275 273 274 273 270 276 283 286 289 288 288 286 282 281 288 288 289 289 289 289 288 288 287 285 285 283 283 287 290 290 291 291 291 290 290 290 290 289 289 287 287 286 287 286 287 287 287 286 286 285 284 284 284 283 283 282 282 282 282 282 282 281 281 281 281 280 280 279 278 277 276 276 277 278 279 279 279 278 278 278
285 285 283 279 276 275 274 273 272 270 273 280 283 285 287 286 288 286 280 278 285 287 289 288 287 287 287 285 285 285 284 281 282 286 290 290 290 290 289 290 290 289 288 287 287 287 285 285 285 286 285 285 285 285 284 284 284 284 282 282 282 282 281 281 281 281 281 281 280 280 280 280 279 278 277 276 276 277 278 278 278 278 278 277 277 277
278 281 281 278 276 276 275 273 272 275 275 280 283 284 283 284 287 283 273 273 284 286 288 287 285 285 285 285 284 284 282 280 282 286 289 290 288 288 287 289 289 289 289 287 285 285 285 285 285 284 284 284 284 283 283 283 283 283 282 282 282 282 281 281 281 280 280 280 280 279 280 279 279 278 277 276 277 278 277 277 277 277 277 277 277 276
274 275 279 277 278 278 278 275 276 276 283 285 285 284 281 286 283 274 271 279 284 287 287 287 285 286 285 284 286 283 286 288 288 289 289 287 288 289 288 286 286 286 287 287 286 285 284 285 283 282 282 283 283 283 283 283 283 282 282 282 281 281 281 281 280 280 280 279 279 279 278 278 278 277 277 277 277 277 276 276 276 276 276 275 275 275
273 274 276 278 277 276 277 275 275 278 283 287 287 288 285 283 276 275 284 288 288 286 286 288 286 286 287 286 286 287 288 289 288 287 287 288 288 288 287 287 287 287 286 286 285 284 284 284 282 282 282 282 282 282 282 282 282 281 281 281 280 279 279 280 279 279 279 278 278 277 277 277 277 278 278 278 277 276 276 276 276 276 275 275 274 274
275 274 273 275 276 277 276 274 274 271 282 289 288 286 285 280 281 287 286 287 288 287 285 286 288 288 287 287 289 290 289 288 288 288 287 287 287 288 289 288 287 287 287 286 285 283 283 283 282 282 282 282 282 282 282 281 281 281 280 279 279 279 279 279 279 278 278 278 277 277 277 277 277 277 278 277 277 276 275 275 275 275 275 274 274 273
281 275 275 276 280 275 275 272 273 279 282 289 288 281 283 288 290 289 288 286 287 284 285 283 285 288 288 289 290 290 290 289 290 288 287 287 287 288 288 288 286 286 285 284 284 283 283 283 282 282 282 281 281 281 282 282 281 281 280 278 278 278 279 278 278 278 277 277 277 277 277 277 277 277 276 276 276 276 275 275 275 275 274 274 273 273
284 278 279 275 280 277 275 279 284 285 287 288 288 288 289 290 289 290 289 289 289 290 286 287 289 290 289 288 287 288 287 289 290 289 287 288 289 290 290 291 290 289 288 286 285 284 283 283 282 281 281 281 281 281 281 282 282 280 278 278 279 278 278 278 278 277 277 277 276 276 276 276 276 276 276 276 276 275 275 275 275 274 274 274 273 273
281 281 283 282 280 284 285 285 287 287 286 286 287 288 288 290 292 292 292 291 292 291 290 289 290 289 288 286 286 286 287 289 289 288 287 288 289 289 290 291 292 290 287 285 284 283 283 282 282 281 281 281 281 280 281 281 282 280 278 279 278 278 278 278 277 276 276 275 275 275 275 275 275 275 276 276 276 275 275 275 274 274 274 273 273 273
281 281 280 277 279 277 274 284 284 284 284 285 284 286 288 290 291 292 291 292 292 292 290 289 290 288 288 287 287 287 288 289 287 288 288 289 289 290 290 291 291 291 291 288 285 283 282 281 281 281 281 280 280 280 280 280 279 279 279 278 278 278 278 277 276 275 274 274 274 274 275 274 274 274 275 275 275 275 275 275 274 274 273 273 272 272
274 281 277 277 276 275 275 280 282 283 283 284 285 285 286 290 292 291 291 292 292 292 290 290 287 288 288 287 288 288 288 288 287 288 288 288 289 290 291 292 292 292 292 288 284 281 280 280 280 281 281 280 280 280 279 278 278 277 277 277 277 277 276 275 274 274 273 273 274 274 274 274 274 274 274 274 274 274 274 273 273 272 271 272 272 271
277 279 272 276 274 277 278 279 280 281 282 283 285 288 290 292 291 289 289 289 289 289 290 289 288 289 289 290 289 288 287 288 288 288 288 288 289 290 291 292 291 290 290 288 285 282 282 280 280 280 280 280 279 279 278 277 276 276 276 276 276 276 275 274 273 273 273 273 273 273 273 274 274 273 272 272 272 272 272 271 271 271 272 272 272 272
277 273 277 275 272 272 273 276 279 275 275 281 283 285 286 287 287 287 288 288 289 289 290 289 289 288 289 289 289 289 288 289 289 287 288 290 290 290 291 291 290 288 288 286 285 284 283 283 281 280 279 278 278 277 276 276 275 275 275 276 276 275 274 273 273 273 273 273 273 273 273 273 273 272 272 272 271 271 272 274 274 274 272 272 274 274
275 276 275 273 273 272 278 280 282 281 281 283 284 286 287 287 287 287 288 289 290 290 290 289 289 289 289 289 289 288 289 290 290 290 289 290 291 292 291 290 288 287 285 284 283 282 282 282 282 281 280 278 277 276 275 275 275 275 275 276 276 275 274 274 273 273 273 273 272 273 273 273 272 272 272 272 271 270 269 269 271 273 274 275 274 274
Wind_Speed
1 2 3 4 2 3 3 3 1 1 1 3 4 4 5 5 6 2 2 1 1 2 6 6 6 8 12 12 13 12 6 7 8 7 5 5 4 5 5 5 5 5 3 4 5 4 3 3 3 2 2 2 4 3 4 4 5 4 5 6 7 6 5 7 7 7 8 7 6 4 6 6 6 6 5 6 5 6 7 6 6 6 7 7 8 8
1 1 5 1 0 2 2 2 2 3 2 4 4 5 7 4 6 1 1 1 0 2 4 5 6 9 12 13 15 11 6 8 6 5 5 4 4 5 6 5 5 4 4 4 4 4 4 4 4 4 2 3 4 3 4 4 5 5 5 6 6 7 6 7 6 7 6 6 6 6 6 5 6 6 7 7 7 7 5 6 6 6 6 6 7 8
3 6 2 1 1 4 2 1 1 1 3 3 4 4 4 4 1 2 1 1 1 1 7 4 9 13 14 15 13 8 6 2 0 1 2 3 6 6 5 5 5 4 4 4 4 5 5 4 3 4 4 1 1 4 4 3 5 5 5 5 5 7 6 6 6 7 6 5 5 5 4 7 4 5 7 6 6 7 7 6 6 7 6 7 7 8
4 2 1 1 1 1 2 1 1 2 3 3 4 4 5 1 1 4 0 2 2 3 3 5 7 13 13 11 8 1 0 1 1 0 2 1 2 3 5 6 6 5 5 5 5 5 5 5 5 4 3 4 3 4 4 3 3 4 4 5 5 6 6 6 5 6 6 5 5 5 2 6 4 3 6 6 7 7 7 7 7 7 7 7 7 7
3 2 2 1 1 0 0 0 1 1 4 4 6 4 4 2 1 2 3 5 0 1 1 6 6 7 6 2 1 2 0 1 3 2 3 4 4 0 2 2 3 6 5 5 5 5 5 5 5 5 3 4 4 3 3 2 4 3 5 5 5 4 5 5 5 5 5 5 5 4 4 3 3 2 3 4 3 5 6 5 6 7 6 7 7 7
3 1 0 1 0 1 0 2 3 0 2 2 2 2 1 2 3 3 4 6 3 2 1 2 8 4 3 5 7 4 1 3 3 5 5 6 5 5 4 4 3 2 3 5 5 6 5 4 5 4 4 4 3 4 3 1 1 1 1 4 4 2 4 4 5 5 4 5 6 5 5 4 3 4 4 7 8 6 7 8 5 5 6 6 6 6
1 1 1 0 1 2 0 2 1 2 2 1 2 0 2 1 0 2 4 4 3 1 1 1 1 9 2 7 6 5 2 5 1 4 5 5 6 6 6 5 6 6 4 2 2 4 5 4 4 5 4 3 3 4 3 3 2 1 1 1 3 3 3 4 5 5 4 5 5 6 6 5 6 6 5 5 6 7 7 6 6 7 7 7 7 6
2 1 1 1 1 1 1 2 3 4 3 3 1 1 1 0 0 1 1 1 4 1 4 4 5 3 10 6 6 1 2 7 5 6 6 5 5 7 6 6 6 7 6 6 5 5 5 5 6 5 5 4 3 4 2 2 2 2 2 3 3 2 3 4 4 5 5 6 5 5 5 6 7 7 7 9 9 7 8 7 7 7 7 6 6 6
0 1 1 2 1 1 4 1 0 1 3 1 3 2 1 1 0 0 1 3 3 2 7 1 2 0 5 6 1 2 3 7 5 7 6 6 6 5 6 6 6 7 7 7 7 6 6 6 5 4 5 4 4 3 2 1 2 1 2 2 1 2 2 4 4 4 4 4 5 6 5 5 5 4 3 3 4 5 5 6 6 6 6 6 5 6
2 1 0 2 1 2 2 1 3 5 1 0 0 1 0 1 0 1 1 1 1 1 6 4 5 4 6 6 5 1 1 6 5 2 4 7 7 6 6 5 6 5 6 6 6 5 6 5 5 4 4 4 4 4 3 2 2 2 3 3 4 2 2 4 3 4 5 4 3 5 5 5 4 4 1 2 4 4 4 4 5 5 7 6 6 5
1 2 3 3 1 1 1 1 1 2 0 1 1 1 1 1 2 0 1 2 0 2 9 7 7 3 4 3 6 3 3 2 1 2 1 1 2 5 5 6 6 6 5 5 5 5 5 5 5 4 4 4 4 3 2 3 2 2 2 4 3 3 3 4 4 3 5 5 4 3 4 5 5 4 4 3 3 4 4 4 4 4 5 6 7 6
1 0 1 1 3 2 2 1 2 1 2 1 1 1 2 2 1 0 1 2 1 4 2 3 0 1 5 4 5 0 0 0 1 0 0 2 3 3 5 5 6 6 5 5 4 5 5 5 4 4 4 5 5 4 4 4 3 3 3 3 4 2 3 3 3 3 4 4 4 3 3 4 4 3 3 4 4 5 5 5 5 5 5 5 6 6
0 2 1 2 2 3 2 1 1 1 1 2 3 3 0 2 0 1 1 1 4 7 0 0 2 2 5 9 8 12 14 6 4 2 1 0 1 1 2 5 4 5 6 6 5 5 5 6 6 5 5 5 5 6 5 5 4 4 4 4 6 4 3 4 3 4 4 4 4 4 2 2 2 3 3 4 4 3 4 5 4 5 5 4 4 5
0 2 1 1 1 2 1 1 1 2 0 1 0 1 1 0 2 4 4 3 2 0 3 2 0 1 4 8 9 14 13 8 5 1 1 1 0 2 2 2 1 5 6 6 5 5 6 6 6 6 6 6 5 5 6 5 5 4 4 4 5 5 4 4 3 4 3 3 4 4 4 4 3 3 2 1 2 1 1 2 4 4 5 5 5 5
3 1 1 1 0 3 1 2 2 1 1 4 0 1 0 1 1 2 1 4 3 1 0 4 1 5 3 4 2 0 2 1 0 0 0 1 0 0 2 4 4 1 2 4 5 5 6 6 6 7 6 6 6 6 5 5 5 5 5 4 5 5 4 4 4 3 4 3 1 2 2 2 2 2 3 3 2 3 2 1 2 1 1 2 3 5
4 2 2 2 1 2 1 1 0 0 2 1 1 2 1 2 2 3 1 3 3 4 1 1 4 3 6 5 10 11 10 7 5 2 0 1 1 0 1 3 4 4 3 4 4 4 5 5 5 5 5 6 5 6 5 5 5 5 5 5 5 6 5 4 4 3 2 3 3 1 3 2 1 1 1 1 2 2 2 2 2 1 2 3 4 5
3 2 0 3 3 1 0 1 1 1 0 1 3 1 2 1 1 3 2 1 1 1 7 3 5 6 5 7 12 11 5 3 1 1 0 1 0 0 3 4 5 5 5 5 6 5 5 5 5 6 6 5 5 6 7 7 6 6 5 5 5 5 4 4 4 4 2 1 2 1 1 1 1 1 1 1 3 3 3 2 1 2 3 3 4 5
1 3 0 1 1 1 1 1 1 2 0 1 0 2 4 2 1 0 2 1 0 4 4 5 4 3 1 4 2 2 3 4 2 0 1 0 0 1 4 5 5 6 6 6 6 6 7 7 7 6 6 7 7 7 7 7 6 5 5 5 6 5 5 4 4 4 3 3 1 2 0 0 0 1 1 3 3 3 3 1 1 3 3 3 4 4
3 3 1 1 2 1 1 0 1 0 1 1 1 1 2 2 2 1 1 3 1 4 4 2 2 3 3 5 4 9 6 4 5 1 4 5 3 2 4 4 4 4 3 4 5 5 6 7 7 8 7 7 7 7 7 6 6 5 5 5 5 6 5 5 4 4 3 2 2 2 1 2 0 1 2 3 3 2 2 3 3 3 4 4 4 4
1 1 1 1 0 1 0 1 2 1 0 1 2 2 1 2 4 1 3 1 1 6 4 4 1 4 1 5 5 2 3 5 9 11 11 12 9 7 5 5 4 1 3 4 5 5 5 6 7 8 8 8 8 8 7 7 6 6 5 5 4 4 4 4 4 4 4 3 3 2 2 1 1 1 2 3 3 3 3 4 4 4 4 4 4 4
1 3 2 0 3 1 1 4 3 4 4 2 1 1 1 2 2 1 2 2 3 4 4 5 7 4 6 3 0 1 5 6 8 10 9 9 7 5 5 3 2 2 3 3 5 5 6 6 7 7 6 7 6 6 6 7 8 7 6 6 6 7 6 5 5 4 4 4 4 4 4 4 2 2 2 2 2 4 4 3 3 4 4 4 4 3
0 1 4 0 0 1 5 2 0 1 1 3 6 6 7 3 0 0 8 1 1 1 3 2 11 1 3 3 8 1 5 7 6 6 7 8 9 7 6 6 4 4 5 5 5 5 6 5 6 6 5 5 5 6 8 7 6 7 7 7 7 6 6 6 5 5 4 4 4 4 4 4 3 2 2 3 3 4 4 4 4 4 4 4 3 4
2 1 1 4 4 7 0 1 0 0 1 2 1 2 4 1 0 1 3 3 3 3 4 4 8 8 6 11 13 9 8 7 6 5 8 8 8 8 8 6 6 6 7 6 6 5 5 5 4 6 7 8 9 8 8 8 9 9 8 7 7 7 6 6 6 5 5 4 4 4 4 4 4 2 2 3 4 4 4 4 3 3 6 4 4 4
3 0 1 3 4 2 1 1 0 0 0 1 1 1 1 1 0 0 2 1 2 5 6 5 6 3 1 2 4 4 5 5 4 5 8 9 7 8 8 7 7 6 6 6 6 5 6 5 5 4 6 7 8 8 10 9 8 8 8 8 7 8 7 6 6 6 6 5 5 5 5 4 4 4 3 4 4 5 5 4 4 4 5 5 5 6
1 3 2 2 3 3 2 0 2 1 2 1 1 2 4 3 2 1 0 0 4 7 8 6 15 7 3 8 13 13 11 14 13 9 6 8 8 7 7 7 9 8 6 5 6 7 6 6 6 8 8 8 8 8 8 9 9 9 9 8 9 8 7 7 6 7 6 6 6 5 5 5 5 4 4 4 4 5 5 5 4 4 5 6 5 5
2 3 1 2 4 4 3 1 1 1 1 2 1 0 1 4 4 0 3 2 5 3 7 4 12 11 3 3 7 15 17 15 13 11 9 7 8 11 10 10 9 7 8 6 6 5 7 8 8 7 8 8 9 9 9 9 9 9 9 10 8 8 8 8 7 7 7 7 7 6 6 5 5 5 5 6 5 5 5 5 5 5 4 5 5 5
1 1 3 5 5 8 7 1 1 1 3 1 2 2 4 3 5 4 2 3 12 8 6 11 14 20 18 12 11 13 11 14 19 19 18 15 12 11 9 10 8 8 7 8 7 8 7 6 9 10 9 9 9 9 9 9 9 9 9 9 8 8 9 8 8 8 8 7 7 6 6 5 5 6 6 6 5 5 5 5 5 5 5 5 5 6
1 2 4 4 7 10 6 8 5 2 6 6 5 7 4 4 5 7 7 13 4 6 16 14 6 13 17 7 10 14 20 20 20 20 19 17 15 14 13 13 12 11 10 9 9 10 10 11 10 9 9 8 9 9 8 8 10 10 10 11 9 9 9 8 9 8 8 8 7 7 7 6 5 5 5 5 4 5 5 5 5 5 5 5 6 6
1 2 1 4 6 7 6 7 5 4 4 5 7 9 10 9 7 9 12 13 6 7 16 24 11 16 21 15 15 17 18 17 20 23 21 18 16 16 15 14 12 12 11 10 9 9 8 9 9 9 9 9 8 8 9 9 9 8 7 7 8 8 10 9 9 9 8 7 8 7 6 6 5 5 5 5 5 5 5 5 5 5 6 6 6 6
0 4 4 4 8 7 5 2 1 3 3 5 8 11 13 12 12 10 13 11 10 13 17 22 21 20 23 18 16 20 18 17 20 20 17 14 15 16 16 15 11 9 9 9 9 8 7 8 8 8 8 8 8 9 9 9 9 9 10 9 9 8 7 9 9 9 8 8 7 7 7 7 5 5 5 6 6 5 5 6 6 7 6 6 6 6
4 4 7 2 4 6 6 3 3 6 7 8 10 12 15 12 9 11 10 13 13 13 17 19 20 23 17 6 13 18 14 14 16 21 18 13 11 13 14 14 10 8 8 9 11 12 11 10 9 9 10 9 8 9 9 9 9 8 8 8 9 9 8 7 8 8 9 8 7 8 7 7 6 6 6 5 6 5 6 6 6 6 6 6 6 6
3 4 3 2 4 7 7 1 4 1 2 6 9 16 17 11 12 10 11 13 8 13 16 15 17 19 12 3 9 13 10 11 14 16 15 10 7 9 13 14 14 14 13 12 10 8 8 8 9 9 9 8 7 6 6 6 6 8 9 8 9 8 8 8 7 8 8 7 8 8 8 7 7 6 6 6 6 5 5 6 7 6 6 6 6 5
4 2 2 1 3 9 9 1 3 2 3 7 14 21 16 15 14 12 12 8 9 10 12 13 18 17 12 7 10 15 15 12 11 12 12 13 13 12 12 13 12 11 10 8 10 10 9 9 9 9 9 8 8 6 6 6 6 8 8 9 8 8 8 8 8 8 8 8 8 8 8 7 7 7 6 6 6 5 6 7 6 6 6 6 5 6
4 4 5 2 3 7 7 2 1 1 5 12 8 2 8 7 10 12 11 11 13 11 11 14 16 17 15 14 15 18 17 15 13 13 10 9 11 13 11 10 9 8 9 11 10 11 11 10 10 9 9 9 7 5 3 4 6 6 6 8 8 10 8 9 7 8 8 8 8 8 8 8 8 7 7 6 6 6 6 6 6 5 5 6 6 7
5 6 6 3 3 8 4 1 1 8 12 16 4 6 4 7 7 9 9 10 12 13 15 18 19 19 19 17 17 18 16 15 12 10 8 7 6 7 9 9 9 9 10 10 12 12 12 11 11 10 10 9 7 3 1 1 3 6 7 8 9 8 9 7 8 8 8 9 8 8 9 9 8 9 8 8 7 7 7 6 6 6 5 6 7 7
11 8 3 3 5 4 5 5 5 10 6 5 11 9 6 2 3 1 8 12 16 17 14 15 17 20 20 18 15 13 12 6 2 4 7 9 8 8 8 10 10 10 10 10 10 12 11 12 13 11 10 8 5 3 1 1 3 6 6 5 8 7 7 8 8 8 8 8 8 8 8 9 9 9 8 8 8 8 7 7 7 7 6 6 6 6
12 6 5 9 6 9 8 8 11 6 12 13 12 12 4 7 3 7 10 10 12 11 8 10 15 17 16 14 13 7 4 2 3 3 6 7 7 6 6 7 8 10 8 8 7 10 9 9 10 10 8 7 4 1 1 3 4 5 6 6 5 7 6 7 8 8 8 7 8 7 7 7 9 8 8 7 8 8 8 8 7 6 6 8 7 7
11 13 9 7 5 8 6 8 6 5 9 12 13 10 7 8 6 4 4 9 8 6 7 14 16 12 5 4 5 6 4 7 6 3 10 9 8 9 8 6 6 6 7 7 7 6 7 7 7 7 8 7 3 2 2 3 5 5 5 5 5 6 5 6 6 6 7 7 6 7 7 8 9 9 8 8 8 8 7 7 6 6 7 8 8 7
10 11 9 9 7 4 7 10 9 8 10 9 13 5 4 3 4 1 3 11 5 7 11 7 2 1 0 3 6 6 9 6 4 5 7 10 10 7 7 10 8 6 6 6 7 9 10 9 8 8 6 4 3 3 2 4 5 6 5 4 5 5 5 5 5 6 6 6 6 6 7 7 8 8 8 8 8 8 8 8 7 7 7 7 7 8
3 6 7 9 10 11 10 8 10 6 8 7 8 5 3 1 2 1 8 5 3 3 1 2 3 2 2 5 4 7 6 4 6 6 6 7 6 6 5 7 11 11 11 7 4 4 6 8 7 6 6 5 4 2 3 4 5 5 5 4 4 4 4 5 5 5 5 6 6 6 7 7 8 7 8 9 8 8 8 7 8 8 8 7 7 8
2 3 5 12 11 13 14 12 8 6 7 8 11 3 1 1 2 4 12 10 4 8 1 2 3 2 4 4 3 4 1 1 5 6 6 6 6 9 6 4 5 5 7 8 7 5 5 5 4 3 3 3 4 3 2 4 5 5 4 4 4 4 4 5 6 7 6 6 6 6 6 6 7 8 8 8 8 8 7 7 8 8 9 9 8 8
3 3 3 6 11 12 12 13 11 8 3 8 8 4 1 2 8 16 7 1 4 5 1 2 4 2 2 2 2 1 3 4 5 5 5 5 5 6 6 7 7 7 4 2 5 3 4 4 3 3 3 4 3 3 2 4 5 4 5 5 4 4 4 6 7 7 7 7 6 6 6 7 7 8 8 8 9 9 8 7 8 8 8 7 8 10
4 3 4 8 5 5 5 9 8 12 4 12 7 9 3 8 8 8 5 6 6 2 3 0 2 1 1 1 2 2 4 4 4 5 5 4 5 7 8 8 8 7 9 8 6 2 2 3 1 1 1 3 3 3 3 4 4 4 4 5 4 4 5 6 6 7 7 7 7 7 7 7 9 7 7 7 8 9 9 7 7 7 8 9 9 10
4 8 5 5 3 8 9 10 7 0 2 3 8 6 2 10 9 9 6 6 3 2 1 1 1 0 2 4 5 5 5 6 6 4 4 5 6 8 8 7 6 6 6 4 4 3 1 1 0 0 1 2 3 3 3 3 4 3 4 4 3 4 5 6 6 6 7 7 7 7 6 7 7 7 7 8 8 8 9 8 7 7 7 7 8 8
1 2 6 8 6 4 4 6 7 14 15 9 7 8 10 8 5 7 6 7 9 6 4 7 7 8 7 8 6 6 8 7 8 5 3 5 7 10 12 12 10 8 7 6 5 1 1 2 2 1 0 1 1 3 4 2 4 4 5 3 4 5 5 6 6 7 6 6 6 7 6 7 7 7 7 7 8 9 8 8 8 8 6 7 7 7
16 17 5 3 7 6 10 11 12 10 8 11 12 11 15 15 12 11 11 7 2 4 5 6 6 7 8 6 5 7 8 9 8 7 5 5 7 8 10 12 12 8 6 4 4 3 2 1 1 1 1 0 1 2 3 3 1 4 4 4 4 5 6 7 7 7 7 6 6 7 7 9 7 7 7 7 6 7 6 8 7 8 6 6 6 6
6 7 10 9 4 7 9 5 3 9 11 13 17 20 18 14 8 5 5 1 6 7 10 4 1 3 4 6 7 7 10 9 7 8 7 6 8 8 9 10 11 11 11 9 3 1 1 2 2 3 3 2 1 2 3 4 5 4 4 4 4 5 6 7 8 8 7 7 7 6 7 8 7 7 7 7 7 6 6 6 6 7 7 6 7 7
10 4 12 11 14 12 15 10 13 15 16 18 16 14 17 15 10 4 3 4 8 8 5 6 2 0 2 5 7 9 10 9 8 9 9 8 8 8 9 10 12 12 11 7 1 2 2 2 3 3 3 3 2 3 3 4 4 3 4 4 4 5 7 7 7 8 7 7 6 6 6 8 10 10 8 7 7 7 7 7 7 7 6 5 5 7
12 7 13 9 11 11 18 19 18 17 17 15 14 10 11 10 9 14 18 21 20 14 8 4 2 2 2 7 7 9 11 11 8 9 10 10 9 8 9 10 10 10 9 10 4 1 3 3 3 3 3 2 3 4 4 4 3 3 4 4 5 6 8 7 7 8 8 7 7 7 6 7 7 8 9 9 9 9 7 6 7 8 8 6 4 5
10 15 12 7 12 14 11 11 11 13 15 16 18 21 22 22 23 21 20 20 17 14 8 7 8 6 6 7 8 8 10 12 10 6 9 11 10 9 9 10 8 7 8 5 1 0 1 1 2 2 3 3 3 3 3 4 4 3 3 4 5 7 9 9 8 8 7 6 7 7 7 7 7 8 9 9 10 11 12 16 15 9 8 8 13 15
7 14 5 6 9 11 12 15 15 16 18 17 16 17 20 19 17 17 16 17 18 17 13 11 12 13 11 9 7 8 10 12 13 10 9 11 13 11 10 10 9 7 6 2 2 2 1 2 2 4 5 5 4 3 3 3 3 3 3 4 4 7 8 9 8 7 7 7 6 7 7 8 8 7 8 8 9 10 10 9 13 20 20 17 15 16
Wind_Direction
63 203 208 220 233 5 34 29 5 272 249 274 276 268 261 265 285 104 100 263 215 295 239 234 255 270 280 280 282 281 266 250 249 249 233 205 209 219 222 209 187 162 151 141 126 144 132 153 148 119 142 177 167 207 177 172 182 192 170 154 173 190 178 173 165 168 171 174 178 176 190 194 189 190 183 194 206 199 198 194 190 186 182 178 182 187
125 283 247 136 72 342 356 310 352 323 268 279 288 294 289 260 261 23 100 236 199 43 296 315 311 286 278 283 276 281 276 259 241 244 237 224 221 219 211 204 168 158 105 147 135 146 161 141 144 151 159 169 157 209 172 182 187 193 182 171 172 184 187 183 175 172 178 187 188 173 182 174 179 183 188 198 199 206 205 195 189 186 184 184 183 186
174 221 174 79 2 266 267 355 350 329 317 282 244 283 322 285 318 100 79 219 205 124 267 356 328 290 284 275 281 272 244 243 182 218 211 206 225 214 201 185 156 134 160 159 177 166 151 148 160 145 157 148 117 155 184 183 174 183 187 178 181 179 186 191 174 168 186 181 181 173 174 173 189 190 189 188 190 188 198 200 191 184 181 187 187 185
262 197 170 93 288 320 224 123 352 281 232 250 260 235 242 230 51 300 255 282 211 179 275 323 309 288 283 277 261 242 87 292 335 356 288 213 281 222 188 174 164 169 173 171 172 175 154 163 162 152 160 148 174 168 160 169 193 173 193 188 188 182 181 187 188 167 181 178 177 179 173 167 153 186 179 186 187 181 180 197 189 190 184 185 187 183
219 103 69 262 233 327 307 132 274 233 263 222 214 240 277 7 360 165 311 319 338 356 24 279 267 288 267 285 310 295 278 312 263 232 264 268 241 280 50 56 153 172 167 181 175 158 149 165 159 158 154 161 182 161 136 165 185 170 191 184 189 178 176 176 185 174 166 159 153 134 57 62 74 30 91 137 173 170 181 185 191 197 184 184 186 186
277 127 75 223 209 142 212 249 194 177 304 304 58 81 15 348 344 353 324 334 336 317 205 20 1 301 341 336 314 275 281 267 215 188 225 217 222 233 215 204 199 208 165 172 178 174 156 153 138 145 175 174 191 141 144 146 171 148 192 143 166 172 163 176 172 173 158 156 158 142 143 165 173 181 181 188 194 193 188 199 190 188 188 188 189 190
314 246 293 209 187 104 216 221 180 119 188 38 248 337 344 12 37 312 332 15 329 304 289 94 52 281 284 281 282 258 224 264 187 202 234 204 198 204 215 203 189 182 188 187 120 124 144 165 172 170 167 173 162 118 144 166 151 155 147 147 161 188 174 166 156 164 162 157 168 172 177 183 188 193 222 202 203 194 203 189 187 190 188 191 188 195
138 66 23 306 126 186 179 257 232 156 122 242 203 250 269 46 339 325 36 195 228 278 290 172 155 229 302 285 251 307 297 278 270 240 224 219 206 197 201 203 184 180 178 179 185 181 184 177 176 183 160 171 134 137 147 146 133 144 162 155 189 215 169 156 148 169 174 168 182 183 189 193 195 196 216 206 205 192 182 179 188 174 181 185 186 188
153 144 220 144 266 201 214 314 322 289 162 217 209 217 116 147 166 224 216 247 247 11 300 238 237 262 253 265 331 337 308 292 270 232 217 210 215 207 194 193 184 178 174 172 181 183 184 172 185 149 150 131 130 132 134 123 121 141 139 178 166 194 149 157 161 172 194 183 187 189 188 211 225 212 220 110 112 114 131 152 160 160 171 180 187 186
357 81 35 316 155 228 37 352 8 356 283 309 238 239 268 250 192 187 214 325 302 98 270 236 184 203 273 269 281 347 247 281 267 163 193 196 199 206 197 188 171 160 160 170 178 176 171 172 165 147 134 141 139 146 149 160 172 158 172 171 171 177 168 147 180 169 195 218 210 185 191 195 223 241 268 102 132 132 138 144 165 165 160 176 182 192
121 151 216 53 44 24 91 349 316 359 321 306 293 302 254 206 200 169 194 201 355 267 243 240 193 179 289 265 236 181 220 220 146 86 66 83 174 204 193 178 169 165 171 177 173 164 158 157 141 132 158 171 132 142 172 146 164 167 182 164 159 161 134 145 171 198 183 198 224 200 199 197 202 210 182 176 173 161 151 175 183 185 184 172 182 182
123 102 49 27 324 327 121 88 338 299 343 345 302 285 314 321 30 59 283 121 170 266 220 330 320 66 172 291 283 194 240 202 106 238 206 212 210 213 195 185 172 166 173 174 173 164 153 141 145 159 189 164 168 172 177 170 164 178 179 164 132 146 144 157 166 187 190 179 213 217 205 199 203 203 188 183 189 186 181 182 192 195 187 193 172 175
185 81 98 110 291 32 329 356 325 336 316 359 314 336 99 271 33 299 87 303 209 219 203 351 60 336 253 238 273 308 292 300 301 284 218 297 19 210 203 201 179 165 159 170 182 173 170 173 179 186 202 174 170 187 178 180 175 177 182 184 149 161 155 154 176 185 191 180 190 205 211 199 198 207 188 191 200 205 178 183 183 175 186 185 164 174
317 305 57 346 115 56 323 82 300 11 291 296 181 214 138 257 198 243 236 214 218 340 265 146 46 220 252 280 247 256 277 267 251 136 88 76 353 336 340 360 265 166 158 170 178 182 182 182 190 192 193 184 183 182 175 171 174 178 178 195 154 165 161 154 167 170 178 204 198 185 185 193 192 194 179 209 180 221 174 167 178 170 174 177 183 178
324 350 324 327 221 332 321 115 150 172 24 218 116 64 213 316 301 273 208 222 232 216 192 290 61 233 143 237 187 239 257 300 276 10 116 103 84 356 336 341 352 356 169 167 180 190 182 191 186 188 190 182 184 178 176 173 184 172 186 182 157 156 169 162 162 168 181 185 178 180 189 173 158 167 166 195 209 186 159 91 102 89 83 102 127 114
193 174 277 244 252 335 152 57 152 339 313 242 272 59 34 256 351 227 257 334 316 346 325 210 205 211 191 298 307 293 288 283 280 316 70 322 240 280 307 283 273 262 241 189 194 201 204 191 187 185 187 182 177 176 174 179 180 182 188 181 176 168 171 159 152 166 171 165 173 190 165 194 169 143 143 166 111 78 95 79 100 116 89 80 93 92
346 261 237 173 229 199 159 293 137 127 185 308 34 229 237 191 134 303 351 60 59 79 258 180 284 298 281 301 267 279 296 288 289 120 72 276 301 116 275 271 251 238 229 212 198 203 210 205 197 190 186 182 179 176 183 187 182 186 178 171 166 151 154 153 160 154 154 149 133 195 205 151 132 142 161 164 126 101 74 74 74 91 90 77 75 97
137 264 284 235 244 250 345 51 297 316 99 61 169 252 280 130 169 129 256 330 303 234 269 146 231 287 311 312 322 32 9 307 244 86 226 46 75 313 273 271 260 247 228 214 197 192 192 196 200 196 191 187 186 186 185 187 183 184 174 176 169 169 166 170 153 151 150 155 162 150 119 63 123 131 97 88 110 108 120 136 100 103 105 96 95 105
95 334 256 283 33 170 125 84 314 276 345 154 200 320 27 294 344 261 91 314 314 262 289 237 264 249 179 249 330 305 303 323 22 15 25 25 5 308 303 287 268 267 270 243 218 199 199 198 200 197 197 194 187 185 186 175 168 167 171 183 170 177 174 162 155 140 125 125 125 120 142 140 137 76 100 88 89 106 132 134 118 101 115 108 112 110
348 159 294 277 114 156 113 177 260 335 220 232 343 355 244 107 201 344 213 204 104 268 338 269 271 251 194 222 230 283 10 37 6 4 350 338 350 357 8 12 3 321 270 270 264 242 221 211 204 198 195 192 188 181 178 168 165 176 177 171 174 141 126 128 138 149 152 159 130 126 105 91 122 117 120 133 150 140 115 112 110 113 103 120 106 116
252 118 238 286 295 342 319 164 225 142 160 34 89 228 38 215 235 169 301 207 211 253 238 288 283 242 258 283 88 72 28 1 1 346 339 326 323 337 339 318 290 286 287 279 266 261 244 223 217 211 204 200 187 175 169 171 179 181 171 178 179 168 166 165 168 159 161 141 144 148 163 158 140 130 123 106 98 107 105 99 98 99 117 89 98 110
279 122 211 134 324 173 229 41 176 67 21 169 163 196 184 153 281 6 285 127 219 180 251 266 269 202 270 312 311 323 355 355 341 350 323 307 305 298 288 280 251 254 259 246 248 255 264 248 220 209 196 184 177 183 181 181 173 181 184 183 179 172 177 168 164 159 149 143 149 164 147 133 126 135 129 132 110 103 105 100 97 114 93 100 90 97
143 317 36 276 227 244 119 83 42 322 156 144 73 332 19 272 65 218 264 288 356 269 323 258 291 270 221 263 276 322 353 339 327 322 299 291 288 285 277 264 253 230 236 241 240 252 259 243 216 194 191 189 192 197 193 185 188 190 184 179 182 175 184 169 161 154 142 141 144 151 133 128 131 130 149 129 112 105 98 102 103 102 111 112 94 85
91 142 265 270 268 46 129 151 206 358 49 5 334 160 43 272 181 255 276 149 245 291 310 303 260 264 290 312 351 308 305 301 301 288 283 284 279 278 277 277 271 270 258 240 239 242 248 238 222 206 206 204 202 200 200 200 194 188 184 183 175 180 175 159 151 147 142 146 152 141 133 137 139 144 149 116 119 119 123 118 111 103 113 115 103 103
51 272 114 306 344 294 321 359 12 341 35 170 232 218 198 223 323 121 56 206 279 237 236 276 272 257 248 335 329 322 319 314 303 290 267 278 285 277 280 293 300 295 282 243 231 235 240 242 227 225 224 220 215 209 201 200 201 190 187 179 179 179 167 153 149 146 149 147 145 146 148 147 149 149 138 129 125 127 124 122 114 108 112 112 112 113
149 261 83 263 262 293 270 179 299 351 323 191 244 129 172 169 213 222 287 211 251 223 168 208 262 266 286 301 304 299 303 297 291 291 292 282 287 297 300 298 297 305 298 274 247 247 242 236 238 237 230 228 223 215 210 204 200 196 187 186 176 169 159 158 151 153 152 152 148 156 151 156 156 150 142 139 142 141 133 125 118 113 112 118 118 104
245 271 189 193 193 231 233 237 223 7 336 307 265 200 245 201 214 192 243 265 246 284 283 246 256 289 284 287 278 281 300 304 304 303 301 301 296 291 289 293 297 298 284 272 264 263 271 269 254 244 237 228 224 217 213 206 199 196 189 180 176 169 159 158 154 155 154 153 152 153 157 162 162 151 144 144 148 136 124 123 120 112 116 114 108 105
275 278 234 218 238 245 259 264 277 319 269 277 291 287 268 207 180 190 200 244 264 12 279 263 239 269 277 295 299 299 294 294 293 294 298 298 300 299 297 294 295 295 288 279 280 284 280 271 265 260 251 240 231 221 216 208 200 193 188 183 173 163 158 158 155 156 155 154 153 156 161 161 153 146 140 136 130 124 121 113 110 112 109 100 99 102
218 246 228 166 258 256 250 251 253 260 256 262 263 266 270 257 222 212 237 249 259 236 256 277 277 274 276 276 279 278 279 286 289 288 289 294 298 298 297 295 294 290 288 282 275 278 275 269 263 259 256 245 234 223 217 208 202 191 186 178 170 163 166 157 154 157 156 155 155 158 153 141 136 129 126 126 123 119 117 116 113 102 97 98 101 102
72 250 252 220 259 275 268 255 263 243 262 273 262 256 253 252 247 239 249 251 236 242 253 267 275 269 271 278 281 276 276 280 282 284 288 293 293 295 297 297 296 287 286 287 282 282 283 278 278 275 264 251 233 224 216 208 199 191 183 178 170 165 165 153 159 155 155 156 154 145 138 135 131 134 130 127 128 129 123 118 111 107 104 105 109 111
122 263 97 13 346 291 276 254 239 223 226 248 254 255 252 248 254 245 254 265 256 262 262 270 278 276 274 272 266 268 272 272 276 282 286 287 289 294 299 303 309 306 298 296 300 299 296 292 290 290 281 264 242 226 215 206 198 187 179 168 165 165 163 155 154 154 153 152 146 140 135 135 141 138 136 136 131 129 125 120 117 112 111 110 113 117
130 263 1 346 316 286 273 248 265 343 252 244 262 259 253 251 254 251 242 243 246 256 268 278 278 273 284 228 256 271 273 271 275 281 292 297 298 308 306 309 312 310 311 312 310 308 308 309 309 305 297 287 270 244 222 205 188 177 181 167 167 160 152 151 153 151 149 143 139 139 140 143 141 137 137 131 134 134 129 120 116 117 120 121 120 117
184 213 256 198 235 257 280 160 164 85 346 300 256 248 249 243 237 248 249 253 239 248 267 267 261 269 288 291 291 289 287 286 284 289 298 307 308 309 313 313 312 312 314 325 332 336 337 336 333 331 329 325 312 284 239 200 178 186 175 163 158 143 150 152 152 145 140 141 139 141 142 141 140 139 135 138 137 133 126 122 119 123 126 131 129 109
212 218 237 176 228 270 271 129 151 252 266 253 246 115 197 216 223 231 247 243 247 231 242 249 266 281 292 294 286 282 286 287 286 285 287 289 309 316 318 319 318 329 337 337 336 332 329 329 327 325 323 319 319 330 302 205 187 176 149 141 139 146 151 146 148 142 141 140 143 146 143 142 139 139 138 138 134 130 127 124 129 131 129 120 111 110
223 212 229 197 241 253 288 79 219 230 237 252 328 272 224 246 252 244 257 265 268 263 263 270 276 279 279 278 276 276 278 279 282 293 302 325 349 349 338 333 337 341 331 329 330 329 326 325 322 322 325 325 316 331 35 66 100 119 128 139 144 150 146 147 140 141 144 144 149 146 145 144 143 141 141 140 137 132 129 128 125 122 121 116 116 115
231 217 223 236 216 269 277 224 235 231 260 321 281 271 248 255 247 316 268 250 253 253 256 263 268 270 270 272 276 276 276 282 317 356 25 32 19 352 339 334 331 333 329 326 324 320 324 325 321 318 316 312 325 346 37 117 116 121 134 135 140 143 143 142 140 142 143 146 150 150 150 146 143 140 141 142 138 132 129 127 131 130 123 109 102 100
225 224 207 247 196 237 231 241 244 316 307 281 283 273 232 242 189 182 250 251 243 250 255 261 267 274 286 298 294 313 343 28 6 63 41 29 1 354 339 327 328 327 323 318 322 314 316 314 309 310 312 312 319 344 64 109 105 116 123 129 136 135 139 138 141 148 148 148 148 148 146 141 137 138 140 139 133 131 132 133 130 122 114 108 107 108
209 216 210 219 231 209 240 272 274 258 253 263 243 263 252 237 232 233 224 273 254 255 255 257 268 289 326 344 357 319 345 53 6 360 345 354 359 358 351 336 323 321 321 315 314 307 311 311 304 307 311 309 350 12 91 103 114 116 117 122 127 128 133 134 142 142 141 144 145 142 140 137 138 140 141 136 135 133 129 122 113 116 116 117 117 106
215 216 221 211 246 253 226 233 239 245 242 242 267 241 248 245 251 167 278 271 255 224 241 266 304 58 74 360 352 12 42 35 328 328 328 339 334 342 338 335 331 323 317 318 325 325 325 318 309 305 314 353 23 354 67 101 110 111 115 120 123 127 131 136 138 139 138 140 137 134 131 133 133 137 136 132 132 130 128 127 125 117 107 108 106 103
173 199 198 224 228 229 241 238 238 220 251 241 257 269 253 203 155 121 262 268 222 173 145 111 112 112 61 30 33 48 56 19 306 292 300 310 306 301 318 329 332 333 333 331 324 314 302 302 325 347 8 20 358 12 75 96 98 105 114 117 119 123 132 132 134 126 118 120 121 121 123 128 132 133 131 129 125 121 122 121 113 113 113 109 108 108
178 262 207 223 221 232 234 246 255 270 263 267 265 231 350 20 2 255 234 237 1 317 267 124 130 117 98 67 56 68 342 271 268 275 292 300 327 322 322 317 303 305 309 323 322 330 331 325 360 20 9 351 353 11 54 92 102 109 115 121 117 124 121 117 109 109 112 110 107 108 114 119 126 123 120 121 121 117 113 114 117 117 116 115 110 109
231 179 237 202 226 225 226 240 239 257 252 268 251 277 186 338 235 243 258 310 275 269 180 120 127 118 118 151 130 195 248 259 271 289 300 304 297 280 288 300 314 319 295 275 287 320 338 326 5 17 5 351 358 0 48 95 107 121 124 118 111 113 111 104 106 108 109 108 107 104 100 103 103 108 114 115 118 114 110 107 109 114 116 113 116 114
225 226 203 205 219 237 229 248 250 256 199 224 269 282 169 226 257 262 333 297 270 192 156 237 157 197 133 252 210 244 267 267 257 268 261 288 309 310 312 314 317 314 318 329 338 336 347 335 12 33 5 345 358 355 26 103 114 129 121 111 131 120 107 108 109 110 110 109 104 97 100 101 107 111 115 116 115 116 113 112 109 111 114 118 117 115
302 274 262 251 189 240 217 219 226 149 290 197 176 229 195 223 259 276 292 277 282 120 153 99 3 305 271 270 281 260 248 272 288 271 304 318 316 310 308 291 278 284 286 272 262 278 320 288 206 110 37 18 1 0 7 105 135 136 111 123 123 108 107 107 107 105 103 102 103 103 100 103 103 105 110 115 113 111 114 111 112 111 118 120 120 119
195 342 329 292 308 272 277 299 314 318 315 319 313 295 295 299 319 315 310 335 344 18 19 23 354 338 325 304 283 268 281 285 280 294 324 303 314 311 309 308 305 297 295 302 293 263 210 282 275 168 92 36 18 6 1 23 138 131 119 130 115 118 114 108 104 104 104 105 105 104 103 98 100 103 104 109 116 117 116 115 118 115 116 117 115 116
303 298 298 268 256 285 269 254 267 278 307 319 316 315 317 324 329 330 4 359 49 33 12 355 333 333 332 323 309 300 293 294 299 301 297 292 292 291 293 302 307 302 295 297 300 256 236 196 164 187 195 82 53 22 25 12 106 128 133 122 115 111 109 112 110 107 108 107 105 107 109 103 96 93 95 96 96 105 114 122 121 120 118 111 111 112
274 295 295 268 301 315 268 292 331 334 315 320 318 311 309 303 312 27 335 285 353 345 343 312 249 290 300 325 321 306 305 300 294 284 280 283 280 284 292 295 298 299 304 308 294 197 199 198 223 225 212 209 106 66 46 44 47 87 113 115 108 110 113 111 110 109 108 109 108 107 109 111 111 105 96 95 92 91 96 98 105 105 102 108 113 110
269 275 287 270 267 258 279 301 312 312 306 301 298 304 300 307 337 9 262 289 306 304 280 260 208 300 17 339 311 311 289 277 271 279 286 280 276 279 282 286 289 297 295 291 247 185 198 195 223 235 210 198 150 98 78 73 68 80 91 93 104 111 108 108 114 117 115 112 111 111 115 113 112 109 103 92 92 91 84 71 75 80 76 88 114 124
274 315 263 280 298 304 295 296 293 296 294 295 295 298 302 302 302 309 317 316 313 307 306 281 204 241 238 258 260 268 271 266 258 263 272 276 277 277 276 275 282 285 290 298 298 181 216 209 216 223 205 180 128 115 97 92 84 79 93 110 121 122 115 112 109 111 113 113 110 112 114 113 111 108 104 95 83 72 68 84 84 88 83 59 54 92
266 258 271 303 286 278 288 309 334 319 310 311 306 303 302 304 305 305 305 300 299 301 296 288 284 269 249 252 257 253 259 274 276 261 265 271 270 271 277 283 285 283 286 282 332 171 208 185 188 175 164 125 116 114 114 105 98 87 97 120 131 128 123 123 119 117 116 115 117 121 118 111 108 109 107 104 102 95 81 70 72 75 84 80 77 83
252 266 299 270 266 283 293 292 293 282 278 273 284 291 292 292 293 296 296 296 299 294 294 294 297 298 287 268 240 242 255 266 276 284 286 285 285 280 282 287 285 284 281 264 264 272 219 194 159 147 142 136 128 122 121 114 113 116 120 131 134 131 131 130 124 119 119 121 127 129 124 120 115 112 108 107 107 102 103 96 70 67 75 81 84 86